CAPE
2377 1824 1680 1399 1162 1720 1965 1664 2485 1346 1947 2361 2324 2265 2418 2072 1771 1538 1815 1837 1821 1346
2575 1964 1305 1420 1403 1262 1664 1205 2341 1971 1558 2226 2311 2309 2707 2246 2057 1828 2033 1746 1776 1346
2394 2377 2061 1719 1678 1667 2172 694 571 2092 2007 1600 2034 2387 2596 2196 2154 2112 1851 1702 1763 1706
2116 2139 2235 1990 1995 2217 2312 2555 2288 2459 2233 1925 2335 2384 2591 2416 2122 2480 2311 2048 1918 1853
2191 1896 1874 1906 1919 2017 2305 2405 2015 1954 2078 1990 2322 2263 2369 2225 2285 2086 1880 1822 1707 1975
2213 2194 1836 2028 2101 2020 2213 2430 2368 2123 2620 2319 2322 2249 2076 2231 2410 2311 2021 1926 2123 1991
2400 2393 2351 2293 2405 2056 2596 3141 2978 2821 2725 2611 2378 2549 2316 2414 2503 2373 1961 1944 2038 1806
2724 2781 2949 2813 2832 3031 3237 3426 3341 3306 3083 2746 2757 2443 2711 2041 1827 2042 1820 1536 1390 1409
3093 3100 3118 3399 3325 3453 3665 3715 3532 3074 2910 2443 1967 811 1079 1767 1488 1776 1438 1221 1598 1447
3252 3605 3797 3810 3841 3843 3963 3545 3166 3169 2857 2929 1481 293 502 426 1603 1162 1490 1092 860 740
3509 3208 3450 4012 3918 4014 3659 3389 3320 3189 2688 2824 874 164 75 60 1244 1295 1180 1144 1044 889
2971 3056 3617 3931 4125 3655 3322 3444 2773 2847 2707 2668 345 0 0 265 808 624 810 762 175 50
2964 3573 3919 4231 3947 3393 3158 3082 2813 2641 2501 1869 173 0 0 108 113 136 32 666 7 0
3542 4098 4296 3865 3622 3438 3127 2905 2473 2276 1940 1405 443 0 0 0 32 0 0 0 3 0
CIN
-12 -8 -1 -12 -1 -15 -5 -2 -15 -32 -13 -0 -1 -0 -0 -1 -0 -0 -0 -0 -0 -1
-15 -6 -2 -0 -3 -1 -1 -48 -7 -16 -21 -1 -1 -2 -0 -1 -1 -0 -1 -0 -0 -10
-14 -13 -2 -0 -1 -4 -4 -241 -19 -4 -6 -21 -10 -2 -1 -0 -5 -1 -0 -2 -0 -1
-18 -14 -11 -0 -0 -1 -1 -0 -0 -2 -1 -1 -0 -0 -0 -7 -8 -0 -1 -0 -0 -0
-26 -15 -8 -6 -1 -0 -0 -1 -17 -16 -6 -1 -0 -1 -5 -8 -0 -0 -8 -8 -9 -0
-33 -25 -15 -9 -0 -1 -1 -0 -1 -2 -1 -0 -0 -2 -11 -1 -0 -1 -10 -11 -1 -3
-48 -30 -23 -14 -7 -12 -0 -0 -0 -0 -1 -1 -2 -2 -1 -0 -4 -0 -0 -3 -4 -0
-56 -60 -34 -22 -6 -0 -0 -0 -1 -0 -0 -0 -0 -2 -1 -8 -3 -2 -1 -0 -0 -0
-58 -69 -54 -20 -23 -4 -0 -0 -1 -2 -3 -6 -35 -92 -57 -16 -15 -4 -1 -0 -2 -0
-75 -59 -39 -18 -14 -3 -0 -0 -1 -0 -0 -0 -66 -185 -132 -114 -8 -4 -1 -13 -17 -17
-49 -65 -42 -17 -16 -1 -2 -1 -1 -2 -3 -4 -125 -251 -154 -77 -10 -0 -0 -0 -1 -1
-94 -80 -41 -19 -0 -4 -2 -1 -13 -6 -2 -5 -207 -0 -0 -101 -0 -5 -1 -21 -111 -242
-119 -43 -25 -0 -1 -8 -5 -5 -2 -1 -1 -51 -241 -0 -0 -108 -30 -54 -190 -47 -289 -0
-92 -33 -1 -4 -3 -3 -4 -1 -1 -9 -23 -47 -178 -0 -0 -0 -155 -0 -0 -0 -2 -0
Wind_Speed
14 14 15 16 13 7 17 11 10 10 8 13 14 16 16 15 15 14 13 11 10 11
14 17 13 18 9 13 7 15 8 10 9 10 11 13 13 14 13 12 11 10 10 10
14 14 16 5 20 25 18 17 14 9 9 10 11 10 11 11 11 11 10 9 10 10
12 10 10 10 4 25 15 13 11 12 14 13 11 11 10 9 12 9 8 7 7 6
10 11 9 11 4 11 20 14 12 13 14 14 13 11 10 13 20 14 13 7 7 3
12 12 10 8 9 4 15 19 14 16 14 15 14 13 14 12 14 17 7 12 11 6
16 13 10 10 11 3 15 17 16 13 14 11 13 11 14 15 14 15 15 18 19 16
16 11 8 12 15 9 15 15 16 11 10 10 11 10 12 13 15 18 21 21 17 10
13 10 10 12 15 9 6 6 8 7 7 7 13 14 13 15 18 22 24 26 26 17
14 10 11 14 14 14 11 6 6 6 6 9 12 12 13 16 19 23 24 21 18 14
14 8 9 12 14 14 17 11 7 7 6 8 11 11 13 15 18 18 20 21 21 21
17 11 7 7 11 13 15 11 7 8 8 8 10 12 13 13 11 20 17 18 19 21
18 15 8 7 8 12 12 10 11 9 9 9 10 13 15 19 20 18 18 12 17 23
14 14 12 9 10 11 12 9 9 9 8 9 10 13 15 19 19 22 21 21 19 23
Wind_Direction
143 143 158 171 159 79 260 137 69 63 18 275 86 127 102 116 127 101 109 99 110 188
145 160 149 181 145 158 347 290 56 335 356 358 35 87 75 126 90 103 80 69 58 46
142 147 157 16 278 239 295 43 138 342 10 2 44 68 55 88 89 90 117 116 89 53
138 133 134 139 8 256 294 311 320 308 303 321 341 9 40 139 20 46 100 114 140 143
134 135 126 146 81 304 275 298 313 307 310 316 333 4 28 359 328 5 9 56 186 61
142 139 133 115 127 357 290 281 307 302 312 312 324 337 345 18 11 0 59 23 24 43
148 144 127 121 121 82 282 278 286 306 310 338 339 3 358 360 19 19 19 5 1 9
148 140 124 134 143 126 277 282 284 310 327 344 1 20 37 28 15 3 353 355 8 33
144 136 133 137 144 122 329 353 324 337 359 17 352 2 8 3 357 349 346 334 328 8
145 138 138 143 143 143 134 86 35 38 45 5 355 357 3 360 358 351 351 5 18 27
140 130 131 140 146 146 152 127 90 78 41 20 358 13 16 16 13 18 13 11 17 18
147 140 129 131 138 139 140 119 89 95 79 51 19 16 19 35 55 8 26 28 25 18
152 149 134 127 126 134 127 111 112 95 83 46 28 4 357 347 358 15 15 44 27 9
148 147 139 126 123 125 126 102 94 88 63 48 22 1 358 355 4 352 1 1 7 2